When you browse on this site, cookies collect data to enhance your experience and personalize the content and advertising you see.
Visit our Privacy Policy to learn more. By continuing to use the site, you agree to this use of cookies and data.
  • In Spain
  • List of Countries
  • For 7 days
  • Water Temperature
  • Weather Map
  • Weather Widgets
  • user-avatar
    Login

    Hourly Weather Budkovo

    Today, 5 June, Friday

    Time Temperature Precipitation Wind Pressure Humidity
    00:00 +8°C° 0 mm 3 mps 735 mmHg 95%
    01:00 +8°C° 0 mm 3 mps 735 mmHg 95%
    02:00 +8°C° 0 mm 2 mps 735 mmHg 96%
    03:00 +8°C° 0 mm 2 mps 735 mmHg 96%
    04:00 +8°C° 0 mm 2 mps 735 mmHg 96%
    05:00 +8°C° 0 mm 2 mps 735 mmHg 97%
    06:00 +10°C° 0.1 mm 3 mps 735 mmHg 94%
    07:00 +12°C° 0.1 mm 3 mps 735 mmHg 91%
    08:00 +13°C° 0.1 mm 3 mps 736 mmHg 88%
    09:00 +14°C° 0.6 mm 4 mps 736 mmHg 86%
    10:00 +14°C° 0.6 mm 4 mps 736 mmHg 84%
    11:00 +15°C° 0.6 mm 4 mps 736 mmHg 82%
    12:00 +17°C° 0.1 mm 4 mps 736 mmHg 79%
    13:00 +17°C° 0.1 mm 4 mps 736 mmHg 75%
    14:00 +18°C° 0.1 mm 3 mps 736 mmHg 71%
    15:00 +18°C° 0 mm 3 mps 736 mmHg 71%
    16:00 +19°C° 0 mm 3 mps 736 mmHg 71%
    17:00 +19°C° 0 mm 3 mps 736 mmHg 70%
    18:00 +17°C° 0 mm 3 mps 737 mmHg 77%
    19:00 +16°C° 0 mm 3 mps 737 mmHg 83%
    20:00 +13°C° 0 mm 3 mps 737 mmHg 90%
    21:00 +13°C° 0 mm 3 mps 737 mmHg 91%
    22:00 +12°C° 0 mm 3 mps 738 mmHg 92%
    23:00 +11°C° 0 mm 3 mps 738 mmHg 93%

    Tomorrow, 6 June, Saturday

    Time Temperature Precipitation Wind Pressure Humidity
    00:00 +11°C° 0 mm 3 mps 738 mmHg 94%
    01:00 +12°C° 0 mm 3 mps 738 mmHg 96%
    02:00 +12°C° 0 mm 3 mps 738 mmHg 97%
    03:00 +12°C° 0 mm 4 mps 738 mmHg 97%
    04:00 +13°C° 0 mm 4 mps 738 mmHg 97%
    05:00 +14°C° 0 mm 4 mps 738 mmHg 96%
    06:00 +15°C° 0 mm 5 mps 738 mmHg 92%
    07:00 +17°C° 0 mm 5 mps 738 mmHg 88%
    08:00 +19°C° 0 mm 5 mps 738 mmHg 84%
    09:00 +19°C° 0.4 mm 5 mps 738 mmHg 86%
    10:00 +19°C° 0.4 mm 5 mps 738 mmHg 88%
    11:00 +19°C° 0.4 mm 5 mps 739 mmHg 91%
    12:00 +19°C° 0.1 mm 5 mps 739 mmHg 87%
    13:00 +20°C° 0.1 mm 5 mps 739 mmHg 84%
    14:00 +21°C° 0.1 mm 6 mps 740 mmHg 81%
    15:00 +21°C° 0.1 mm 5 mps 740 mmHg 80%
    16:00 +21°C° 0.1 mm 5 mps 740 mmHg 80%
    17:00 +22°C° 0.1 mm 4 mps 740 mmHg 80%
    18:00 +20°C° 0.1 mm 4 mps 741 mmHg 83%
    19:00 +19°C° 0.1 mm 3 mps 741 mmHg 86%
    20:00 +18°C° 0.1 mm 2 mps 742 mmHg 90%
    21:00 +17°C° 0 mm 2 mps 742 mmHg 91%
    22:00 +16°C° 0 mm 2 mps 743 mmHg 91%
    23:00 +15°C° 0 mm 2 mps 743 mmHg 92%

    Day after tomorrow, 7 June, Sunday

    Time Temperature Precipitation Wind Pressure Humidity
    00:00 +14°C° 0 mm 1 mps 744 mmHg 92%
    01:00 +14°C° 0 mm 1 mps 744 mmHg 92%
    02:00 +12°C° 0 mm 0 mps 745 mmHg 91%
    03:00 +14°C° 0 mm 1 mps 745 mmHg 91%
    04:00 +14°C° 0 mm 1 mps 745 mmHg 91%
    05:00 +15°C° 0 mm 1 mps 745 mmHg 91%
    06:00 +17°C° 0 mm 2 mps 746 mmHg 87%
    07:00 +18°C° 0 mm 2 mps 746 mmHg 83%
    08:00 +20°C° 0 mm 3 mps 746 mmHg 79%
    09:00 +21°C° 0 mm 3 mps 746 mmHg 76%
    10:00 +24°C° 0 mm 3 mps 746 mmHg 73%
    11:00 +25°C° 0 mm 3 mps 747 mmHg 70%
    12:00 +25°C° 0.3 mm 3 mps 746 mmHg 72%
    13:00 +25°C° 0.3 mm 3 mps 746 mmHg 74%
    14:00 +25°C° 0.3 mm 3 mps 746 mmHg 75%
    15:00 +25°C° 1 mm 3 mps 746 mmHg 79%
    16:00 +25°C° 1 mm 3 mps 746 mmHg 82%
    17:00 +25°C° 1 mm 3 mps 745 mmHg 85%
    18:00 +24°C° 0.4 mm 3 mps 745 mmHg 88%
    19:00 +22°C° 0.4 mm 3 mps 745 mmHg 90%
    20:00 +21°C° 0.4 mm 3 mps 745 mmHg 92%
    21:00 +20°C° 0.1 mm 3 mps 745 mmHg 93%
    22:00 +20°C° 0.1 mm 3 mps 746 mmHg 93%
    23:00 +19°C° 0.1 mm 3 mps 746 mmHg 94%

    8 June, Monday

    Time Temperature Precipitation Wind Pressure Humidity
    00:00 +18°C° 0 mm 3 mps 746 mmHg 94%
    01:00 +18°C° 0 mm 3 mps 746 mmHg 95%
    02:00 +17°C° 0 mm 3 mps 746 mmHg 95%
    03:00 +17°C° 0 mm 3 mps 746 mmHg 95%
    04:00 +18°C° 0 mm 3 mps 746 mmHg 95%
    05:00 +18°C° 0 mm 3 mps 746 mmHg 95%
    06:00 +19°C° 0 mm 3 mps 746 mmHg 90%
    07:00 +21°C° 0 mm 3 mps 746 mmHg 86%
    08:00 +22°C° 0 mm 3 mps 747 mmHg 81%
    09:00 +24°C° 0 mm 3 mps 747 mmHg 77%
    10:00 +25°C° 0 mm 4 mps 747 mmHg 73%
    11:00 +26°C° 0 mm 4 mps 747 mmHg 69%
    12:00 +27°C° 0.1 mm 4 mps 747 mmHg 69%
    13:00 +27°C° 0.1 mm 4 mps 747 mmHg 68%
    14:00 +27°C° 0.1 mm 4 mps 746 mmHg 67%
    15:00 +27°C° 0.1 mm 4 mps 746 mmHg 70%
    16:00 +27°C° 0.1 mm 3 mps 746 mmHg 72%
    17:00 +27°C° 0.1 mm 3 mps 746 mmHg 74%
    18:00 +26°C° 0 mm 3 mps 746 mmHg 78%
    19:00 +24°C° 0 mm 2 mps 746 mmHg 83%
    20:00 +21°C° 0 mm 2 mps 746 mmHg 87%
    21:00 +21°C° 0 mm 2 mps 746 mmHg 89%
    22:00 +20°C° 0 mm 2 mps 746 mmHg 90%
    23:00 +19°C° 0 mm 2 mps 747 mmHg 92%

    9 June, Tuesday

    Time Temperature Precipitation Wind Pressure Humidity
    00:00 +19°C° 0 mm 2 mps 747 mmHg 93%
    01:00 +18°C° 0 mm 2 mps 746 mmHg 94%
    02:00 +18°C° 0 mm 2 mps 746 mmHg 94%
    03:00 +18°C° 0 mm 2 mps 746 mmHg 94%
    04:00 +18°C° 0 mm 2 mps 747 mmHg 95%
    05:00 +19°C° 0 mm 2 mps 747 mmHg 95%
    06:00 +20°C° 0 mm 3 mps 747 mmHg 91%
    07:00 +22°C° 0 mm 3 mps 747 mmHg 87%
    08:00 +24°C° 0 mm 3 mps 747 mmHg 83%
    09:00 +25°C° 0 mm 3 mps 747 mmHg 78%
    10:00 +26°C° 0 mm 4 mps 747 mmHg 73%
    11:00 +27°C° 0 mm 4 mps 747 mmHg 68%
    12:00 +28°C° 0.1 mm 4 mps 747 mmHg 67%
    13:00 +28°C° 0.1 mm 4 mps 746 mmHg 65%
    14:00 +28°C° 0.1 mm 4 mps 746 mmHg 64%
    15:00 +28°C° 0.3 mm 3 mps 746 mmHg 68%
    16:00 +28°C° 0.3 mm 3 mps 746 mmHg 71%
    17:00 +28°C° 0.3 mm 2 mps 746 mmHg 75%
    18:00 +26°C° 0.1 mm 2 mps 746 mmHg 79%
    19:00 +24°C° 0.1 mm 2 mps 746 mmHg 83%
    20:00 +23°C° 0.1 mm 2 mps 746 mmHg 87%
    21:00 +21°C° 0 mm 2 mps 746 mmHg 89%
    22:00 +20°C° 0 mm 2 mps 746 mmHg 91%
    23:00 +20°C° 0 mm 2 mps 746 mmHg 92%

    10 June, Wednesday

    Time Temperature Precipitation Wind Pressure Humidity
    00:00 +19°C° 0 mm 2 mps 746 mmHg 93%
    01:00 +19°C° 0 mm 2 mps 746 mmHg 94%
    02:00 +19°C° 0 mm 2 mps 746 mmHg 94%
    03:00 +19°C° 0 mm 2 mps 746 mmHg 94%
    04:00 +19°C° 0 mm 2 mps 746 mmHg 94%
    05:00 +19°C° 0 mm 2 mps 747 mmHg 94%
    06:00 +21°C° 0 mm 2 mps 747 mmHg 91%
    07:00 +23°C° 0 mm 2 mps 747 mmHg 87%
    08:00 +25°C° 0 mm 2 mps 747 mmHg 84%
    09:00 +26°C° 0.4 mm 3 mps 747 mmHg 80%
    10:00 +27°C° 0.4 mm 3 mps 747 mmHg 75%
    11:00 +28°C° 0.4 mm 3 mps 747 mmHg 71%
    12:00 +28°C° 0.4 mm 3 mps 747 mmHg 69%
    13:00 +29°C° 0.4 mm 2 mps 747 mmHg 68%
    14:00 +29°C° 0.4 mm 2 mps 746 mmHg 66%
    15:00 +29°C° 0.2 mm 2 mps 746 mmHg 69%
    16:00 +29°C° 0.2 mm 2 mps 746 mmHg 71%
    17:00 +28°C° 0.2 mm 2 mps 746 mmHg 74%
    18:00 +27°C° 0.2 mm 2 mps 746 mmHg 79%
    19:00 +25°C° 0.2 mm 2 mps 746 mmHg 84%
    20:00 +24°C° 0.2 mm 2 mps 746 mmHg 89%
    21:00 +23°C° 0 mm 2 mps 746 mmHg 90%
    22:00 +21°C° 0 mm 2 mps 747 mmHg 92%
    23:00 +20°C° 0 mm 2 mps 747 mmHg 93%
    Show more